Chesterfield, MO

8:57 AM CST on December 07, 2016 (GMT -0600)
Spirit Of Saint Louis

Weather History for KSUS - October, 2013

Change the Weather History Date:

Thursday, October 3, 2013

  Actual Average Record
Temperature  
Mean Temperature 76 °F -  
Max Temperature 87 °F 71 °F 93 °F (2006)
Min Temperature 64 °F 45 °F 34 °F (2003)
Cooling Degree Days 10    
Growing Degree Days 26 (Base 50)    
Moisture  
Dew Point 66 °F    
Average Humidity 72    
Maximum Humidity 96    
Minimum Humidity 49    
Precipitation  
Precipitation 0.01 in - - ()
Sea Level Pressure  
Sea Level Pressure 29.90 in    
Wind  
Wind Speed 5 mph (SSW)    
Max Wind Speed 15 mph    
Max Gust Speed 24 mph    
Visibility 10 miles    
Events      
Averages and records for this station are not official NWS values.
T = Trace of Precipitation, MM = Missing Value Source: NWS Daily Summary

Daily Weather History Graph

Daily Weather History Graph

Search for Another Location

Airport or City:

Trip Planner

Search our weather history database for the weather conditions in past years. The results will help you decide how hot, cold, wet, or windy it might be!

Date:

Astronomy

Oct. 03, 2013 Rise Set
Actual Time 7:00 AM CDT 6:41 PM CDT
Civil Twilight 6:34 AM CDT 7:08 PM CDT
Nautical Twilight 6:03 AM CDT 7:39 PM CDT
Astronomical Twilight 5:32 AM CDT 8:09 PM CDT
Moon 5:34 AM CDT (10/3) 5:50 PM CDT (10/3)
Length of Visible Light 12h 34m
Length of Day
11h 41m
Waning Crescent, 2% of the Moon is Illuminated
Oct 3
Waning Crescent
Oct 4
New
Oct 11
First Quarter
Oct 18
Full
Oct 26
Last Quarter

Hourly Weather History & Observations

Time (CDT) Temp. Heat Index Dew Point Humidity Pressure Visibility Wind Dir Wind Speed Gust Speed Precip Events Conditions
12:54 AM 71.1 °F - 66.9 °F 87% 29.94 in 10.0 mi Variable 3.5 mph - N/A   Clear
1:54 AM 71.1 °F - 66.9 °F 87% 29.94 in 10.0 mi Variable 3.5 mph - N/A   Partly Cloudy
2:54 AM 71.1 °F - 66.9 °F 87% 29.94 in 10.0 mi Calm Calm - N/A   Mostly Cloudy
3:54 AM 71.1 °F - 66.0 °F 84% 29.94 in 10.0 mi SW 4.6 mph - N/A   Mostly Cloudy
4:54 AM 70.0 °F - 64.9 °F 84% 29.94 in 10.0 mi SW 3.5 mph - N/A   Clear
5:54 AM 68.0 °F - 64.9 °F 90% 29.94 in 10.0 mi Calm Calm - N/A   Clear
6:54 AM 64.0 °F - 63.0 °F 96% 29.95 in 7.0 mi Calm Calm - N/A   Clear
7:54 AM 69.1 °F - 64.9 °F 87% 29.94 in 10.0 mi Calm Calm - N/A   Clear
8:54 AM 72.0 °F - 66.0 °F 81% 29.94 in 10.0 mi SSW 5.8 mph - N/A   Partly Cloudy
9:54 AM 77.0 °F - 66.9 °F 71% 29.95 in 10.0 mi SSW 10.4 mph - N/A   Partly Cloudy
10:54 AM 81.0 °F 83.3 °F 66.9 °F 62% 29.93 in 8.0 mi North - - N/A   Scattered Clouds
11:54 AM 82.9 °F 85.0 °F 66.0 °F 56% 29.92 in 10.0 mi WSW 10.4 mph - 0.01 in   Scattered Clouds
12:54 PM 86.0 °F 88.2 °F 66.0 °F 51% 29.89 in 10.0 mi SSW 11.5 mph 21.9 mph N/A   Mostly Cloudy
1:54 PM 87.1 °F 89.2 °F 66.0 °F 49% 29.86 in 10.0 mi SSW 11.5 mph 17.3 mph N/A   Mostly Cloudy
2:54 PM 87.1 °F 89.2 °F 66.0 °F 49% 29.85 in 10.0 mi SW 15.0 mph 24.2 mph N/A   Mostly Cloudy
3:54 PM 86.0 °F 87.6 °F 64.9 °F 49% 29.85 in 10.0 mi South 9.2 mph - N/A   Mostly Cloudy
4:54 PM 84.0 °F 86.3 °F 66.0 °F 55% 29.84 in 10.0 mi South 12.7 mph 19.6 mph N/A   Mostly Cloudy
5:54 PM 82.0 °F 84.1 °F 66.0 °F 58% 29.85 in 10.0 mi South 11.5 mph 17.3 mph N/A   Scattered Clouds
6:54 PM 79.0 °F - 66.9 °F 66% 29.87 in 10.0 mi Variable 6.9 mph - N/A   Scattered Clouds
7:54 PM 77.0 °F - 66.9 °F 71% 29.87 in 10.0 mi Calm Calm - N/A   Clear
8:54 PM 75.9 °F - 68.0 °F 76% 29.88 in 10.0 mi SSE 4.6 mph - N/A   Clear
9:54 PM 75.0 °F - 68.0 °F 79% 29.89 in 10.0 mi South 5.8 mph - N/A   Clear
11:54 PM 73.9 °F - 68.0 °F 82% 29.89 in 10.0 mi South 6.9 mph - N/A   Clear